{"data":{"norad_id":65469,"epoch":"2026-05-25T00:30:20.007360Z","epoch_age_seconds":76658,"freshness":"FRESH","line1":"1 65469U 25195M   26145.02106490  .00028318  00000+0  84582-3 0  9993","line2":"2 65469  53.1573 263.3991 0000993  38.9348 321.1725 15.34409724 41684","mean_motion":15.34409724,"eccentricity":9.93e-5,"inclination_deg":53.1573,"raan_deg":263.3991,"arg_perigee_deg":38.9348,"mean_anomaly_deg":321.1725,"bstar":0.00084582,"rev_number":4168,"period_min":93.847163340839,"perigee_km":461.99504601658,"apogee_km":463.35363114842,"semimajor_km":6840.8113385825,"source":"CELESTRAK","updated_at":"2026-05-25T13:38:20.814186Z"}}